sat.trackr.live / text

‹ back to catalog

STARLINK-30219

NORAD 57507 · 2023-113N

PAYLOAD ACTIVE UNKNOWN

§ Identity

Operator
Country
US
Launch date
2023-08-07
Launch site
AFETR
Launch vehicle
Mass (kg)
RCS (m²)

Purposes: comms

External: N2YO · Heavens-Above · Gunter

§ Orbital elements

Epoch: 2026-05-25T03:54:31.458240Z

Period
94.11 min
Inclination
43.0017°
Eccentricity
0.0002872
Mean motion
15.30103700 rev/d
Perigee alt
473.5 km
Apogee alt
477.5 km
Semi-major
6,853.6 km
B*
4.1148e-4
RAAN
303.9338°
Arg perigee
280.0823°
Mean anomaly
79.9705°
Rev number
15,537

§ Raw data

STARLINK-302191 57507U 23113N   26145.16286410  .00011987  00000+0  41148-3 0  99962 57507  43.0017 303.9338 0002872 280.0823  79.9705 15.30103700155370

JSON: /api/v1/satellites/57507 · /tle

For live sub-satellite position, see the globe view (requires WebGL).

§ Visibility from observer

Set your observer location to see the next 7 days of passes ≥ 10°. The values pass through the URL so the page stays shareable.

No JS? Fill the form by hand. The geolocation button needs JavaScript.